Wise, VA

4:05 PM EST on December 02, 2016 (GMT -0500)
Lonesome Pine

Weather History for KLNP - May, 2014

Change the Weather History Date:

Sunday, May 11, 2014

  Actual Average Record
Temperature  
Mean Temperature 66 °F -  
Max Temperature 77 °F 69 °F 82 °F (2007)
Min Temperature 55 °F 49 °F 35 °F (1997)
Cooling Degree Days 1    
Growing Degree Days 16 (Base 50)    
Moisture  
Dew Point 58 °F    
Average Humidity 77    
Maximum Humidity 100    
Minimum Humidity 44    
Precipitation  
Precipitation 0.00 in - - ()
Sea Level Pressure  
Sea Level Pressure 30.20 in    
Wind  
Wind Speed 6 mph (SSW)    
Max Wind Speed 13 mph    
Max Gust Speed 16 mph    
Visibility 8 miles    
Events Fog    
Averages and records for this station are not official NWS values.
T = Trace of Precipitation, MM = Missing Value Source: NWS Daily Summary

Daily Weather History Graph

Daily Weather History Graph

Search for Another Location

Airport or City:

Trip Planner

Search our weather history database for the weather conditions in past years. The results will help you decide how hot, cold, wet, or windy it might be!

Date:

Astronomy

May. 11, 2014 Rise Set
Actual Time 6:25 AM EDT 8:27 PM EDT
Civil Twilight 5:56 AM EDT 8:56 PM EDT
Nautical Twilight 5:22 AM EDT 9:31 PM EDT
Astronomical Twilight 4:44 AM EDT 10:09 PM EDT
Moon 5:26 PM EDT (5/11) 4:24 AM EDT (5/11)
Length of Visible Light 14h 59m
Length of Day
14h 02m
Waxing Gibbous, 89% of the Moon is Illuminated
May 11
Waxing Gibbous
May 14
Full
May 21
Last Quarter
May 28
New
Jun 5
First Quarter

Hourly Weather History & Observations

Time (EDT) Temp. Dew Point Humidity Pressure Visibility Wind Dir Wind Speed Gust Speed Precip Events Conditions
12:15 AM 59.0 °F 59.0 °F 100% 30.14 in 10.0 mi SW 5.8 mph - N/A   Scattered Clouds
12:35 AM 59.0 °F 59.0 °F 100% 30.14 in 10.0 mi SW 6.9 mph - N/A   Mostly Cloudy
12:55 AM 60.8 °F 60.8 °F 100% 30.14 in 10.0 mi SW 6.9 mph - N/A   Overcast
1:15 AM 60.8 °F 60.8 °F 100% 30.15 in 10.0 mi SW 6.9 mph - N/A   Overcast
1:35 AM 60.8 °F 60.8 °F 100% 30.14 in 10.0 mi SW 8.1 mph - N/A   Overcast
1:55 AM 60.8 °F 59.0 °F 94% 30.14 in 10.0 mi SW 8.1 mph - N/A   Overcast
2:15 AM 60.8 °F 59.0 °F 94% 30.14 in 10.0 mi SW 9.2 mph - N/A   Overcast
2:35 AM 59.0 °F 59.0 °F 100% 30.14 in 10.0 mi WSW 10.4 mph - N/A   Overcast
2:55 AM 59.0 °F 59.0 °F 100% 30.14 in 10.0 mi WSW 9.2 mph - N/A   Overcast
3:15 AM 60.8 °F 60.8 °F 100% 30.14 in 10.0 mi WSW 10.4 mph - N/A   Overcast
3:35 AM 59.0 °F 59.0 °F 100% 30.15 in 10.0 mi WSW 12.7 mph 16.1 mph N/A   Overcast
3:55 AM 59.0 °F 59.0 °F 100% 30.15 in 10.0 mi WSW 9.2 mph - N/A   Overcast
4:15 AM 59.0 °F 59.0 °F 100% 30.15 in 10.0 mi WSW 8.1 mph - N/A   Overcast
4:35 AM 59.0 °F 59.0 °F 100% 30.16 in 7.0 mi WSW 5.8 mph - N/A   Mostly Cloudy
4:55 AM 57.2 °F 57.2 °F 100% 30.16 in 2.0 mi SW 5.8 mph - N/A   Scattered Clouds
5:15 AM 57.2 °F 57.2 °F 100% 30.16 in 0.2 mi SW 4.6 mph - N/A Fog Fog
5:35 AM 55.4 °F 55.4 °F 100% 30.16 in 0.5 mi SW 6.9 mph - N/A Fog Fog
5:55 AM 55.4 °F 55.4 °F 100% 30.16 in 0.5 mi SW 5.8 mph - N/A Fog Fog
6:15 AM 57.2 °F 57.2 °F 100% 30.17 in 0.2 mi WSW 5.8 mph - N/A Fog Fog
6:35 AM 59.0 °F 59.0 °F 100% 30.18 in 0.2 mi WSW 5.8 mph - N/A Fog Fog
6:55 AM 59.0 °F 59.0 °F 100% 30.19 in 0.2 mi SW 5.8 mph - N/A Fog Fog
7:15 AM 59.0 °F 59.0 °F 100% 30.20 in 0.2 mi WSW 5.8 mph - N/A Fog Fog
7:35 AM 59.0 °F 59.0 °F 100% 30.21 in 0.2 mi SSW 3.5 mph - N/A Fog Fog
7:55 AM 59.0 °F 59.0 °F 100% 30.21 in 0.2 mi WSW 4.6 mph - N/A Fog Fog
8:15 AM 59.0 °F 59.0 °F 100% 30.22 in 0.2 mi SSW 3.5 mph - N/A Fog Fog
8:35 AM 60.8 °F 60.8 °F 100% 30.22 in 0.2 mi SW 4.6 mph - N/A Fog Fog
8:55 AM 60.8 °F 60.8 °F 100% 30.23 in 0.2 mi WSW 4.6 mph - N/A Fog Fog
9:15 AM 62.6 °F 62.6 °F 100% 30.23 in 1.2 mi WSW 3.5 mph - N/A   Overcast
9:35 AM 62.6 °F 62.6 °F 100% 30.24 in 10.0 mi West 3.5 mph - N/A   Scattered Clouds
9:55 AM 66.2 °F 64.4 °F 94% 30.24 in 10.0 mi WSW 3.5 mph - N/A   Clear
10:15 AM 68.0 °F 62.6 °F 83% 30.24 in 10.0 mi Calm Calm - N/A   Mostly Cloudy
10:35 AM 66.2 °F 59.0 °F 78% 30.25 in 10.0 mi ESE 4.6 mph - N/A   Overcast
10:55 AM 68.0 °F 59.0 °F 73% 30.24 in 10.0 mi East 6.9 mph - N/A   Mostly Cloudy
11:15 AM 64.4 °F 60.8 °F 88% 30.25 in 10.0 mi East 5.8 mph - N/A   Overcast
11:35 AM 68.0 °F 59.0 °F 73% 30.25 in 10.0 mi ESE 5.8 mph - N/A   Overcast
11:55 AM 66.2 °F 60.8 °F 83% 30.25 in 10.0 mi East 5.8 mph - N/A   Overcast
12:15 PM 69.8 °F 59.0 °F 68% 30.26 in 10.0 mi Calm Calm - N/A   Mostly Cloudy
12:35 PM 71.6 °F 60.8 °F 69% 30.25 in 10.0 mi SE 3.5 mph - N/A   Overcast
12:55 PM 71.6 °F 59.0 °F 64% 30.25 in 10.0 mi ESE 4.6 mph - N/A   Overcast
1:15 PM 71.6 °F 60.8 °F 69% 30.24 in 10.0 mi SSE 5.8 mph - N/A   Mostly Cloudy
1:35 PM 73.4 °F 59.0 °F 61% 30.24 in 10.0 mi ENE 4.6 mph - N/A   Scattered Clouds
1:55 PM 73.4 °F 59.0 °F 61% 30.24 in 10.0 mi SSE 4.6 mph - N/A   Mostly Cloudy
2:15 PM 73.4 °F 57.2 °F 57% 30.23 in 10.0 mi SE 4.6 mph - N/A   Scattered Clouds
2:35 PM 77.0 °F 59.0 °F 54% 30.23 in 10.0 mi SE 4.6 mph - N/A   Scattered Clouds
2:55 PM 73.4 °F 55.4 °F 53% 30.23 in 10.0 mi SE 5.8 mph - N/A   Overcast
3:15 PM 73.4 °F 57.2 °F 57% 30.22 in 10.0 mi SSE 6.9 mph - N/A   Mostly Cloudy
3:35 PM 71.6 °F 55.4 °F 57% 30.22 in 10.0 mi SSE 6.9 mph - N/A   Scattered Clouds
3:55 PM 75.2 °F 55.4 °F 50% 30.21 in 10.0 mi South 5.8 mph - N/A   Scattered Clouds
4:15 PM 77.0 °F 55.4 °F 47% 30.21 in 10.0 mi SSE 5.8 mph - N/A   Clear
4:35 PM 77.0 °F 55.4 °F 47% 30.19 in 10.0 mi South 6.9 mph - N/A   Scattered Clouds
4:55 PM 77.0 °F 53.6 °F 44% 30.19 in 10.0 mi SSE 4.6 mph - N/A   Scattered Clouds
5:15 PM 77.0 °F 53.6 °F 44% 30.19 in 10.0 mi SSW 4.6 mph - N/A   Scattered Clouds
5:35 PM 77.0 °F 53.6 °F 44% 30.19 in 10.0 mi SSE 5.8 mph - N/A   Scattered Clouds
5:55 PM 77.0 °F 53.6 °F 44% 30.18 in 10.0 mi SSE 6.9 mph - N/A   Scattered Clouds
6:15 PM 77.0 °F 53.6 °F 44% 30.18 in 10.0 mi SE 4.6 mph - N/A   Clear
6:35 PM 75.2 °F 53.6 °F 47% 30.17 in 10.0 mi SSE 6.9 mph - N/A   Clear
6:55 PM 75.2 °F 53.6 °F 47% 30.17 in 10.0 mi South 6.9 mph - N/A   Clear
7:15 PM 73.4 °F 53.6 °F 50% 30.16 in 10.0 mi SSE 5.8 mph - N/A   Clear
7:35 PM 73.4 °F 53.6 °F 50% 30.17 in 10.0 mi SSE 4.6 mph - N/A   Clear
7:55 PM 71.6 °F 53.6 °F 53% 30.17 in 10.0 mi SSE 4.6 mph - N/A   Clear
8:15 PM 69.8 °F 55.4 °F 60% 30.17 in 10.0 mi South 4.6 mph - N/A   Clear
8:35 PM 68.0 °F 55.4 °F 64% 30.18 in 10.0 mi SSW 3.5 mph - N/A   Clear
8:55 PM 66.2 °F 55.4 °F 68% 30.19 in 10.0 mi South 3.5 mph - N/A   Clear
9:15 PM 64.4 °F 55.4 °F 73% 30.19 in 10.0 mi South 4.6 mph - N/A   Clear
9:35 PM 64.4 °F 55.4 °F 73% 30.20 in 10.0 mi South 4.6 mph - N/A   Clear
9:55 PM 64.4 °F 55.4 °F 73% 30.20 in 10.0 mi South 4.6 mph - N/A   Clear
10:15 PM 64.4 °F 55.4 °F 73% 30.21 in 10.0 mi SSW 4.6 mph - N/A   Clear
10:35 PM 62.6 °F 55.4 °F 77% 30.21 in 10.0 mi SW 4.6 mph - N/A   Clear
10:55 PM 62.6 °F 53.6 °F 72% 30.21 in 10.0 mi SSW 3.5 mph - N/A   Clear
11:15 PM 62.6 °F 53.6 °F 72% 30.21 in 10.0 mi South 5.8 mph - N/A   Clear
11:35 PM 64.4 °F 53.6 °F 68% 30.22 in 10.0 mi South 4.6 mph - N/A   Clear
11:55 PM 66.2 °F 51.8 °F 60% 30.21 in 10.0 mi South 5.8 mph - N/A   Clear